Weather observations for the past three days for
Plymouth, Plymouth Municipal Airport
Imperial (Metric)
Date Time (edt) Wind (mph) Vis. (mi.) Weather Sky Cond. Temperature (ºF) Relative Humidity Wind Chill (°F) Heat Index (°F) Pressure Precipitation (in)
Air Dwpt 6 hour altimeter (in) sea level (mb) 1 hr 3 hr 6 hr
Max. Min.
22 23:52 NE 7 4.00 Fog/Mist OVC003 64.9 63 93% 29.99 1015.8
22 22:52 NE 6 4.00 Fog/Mist OVC002 66 64 93% 30 1015.9
22 21:52 NE 5 3.00 Fog/Mist OVC002 66 64 93% 30.01 1016.2
22 20:52 N 7 10.00 Overcast OVC004 66.9 64 91% 30 1016.0
22 19:52 NE 5 9.00 Overcast BKN005 OVC010 66.9 64 72 66.9 91% 29.98 1015.5 0.08
22 18:52 NE 6 7.00 Light Rain BKN006 OVC012 66.9 64 91% 29.98 1015.5 0.04
22 17:52 E 6 5.00 Rain Fog/Mist BKN016 BKN070 OVC090 66.9 64 91% 30 1015.9 0.04
22 16:52 NE 7 10.00 Overcast OVC018 69.1 63 81% 30.01 1016.2
22 15:52 NE 10 10.00 Overcast BKN010 OVC014 71.1 64 79% 30.01 1016.3
22 14:52 NE 7 10.00 Overcast OVC008 71.1 64.9 81% 30.01 1016.4
22 13:52 N 8 10.00 Overcast BKN007 OVC015 72 66 75.9 68 82% 30.02 1016.7
22 12:52 NE 10 10.00 Overcast OVC014 73 66 79% 30.03 1017.0
22 11:52 NE 7 10.00 Overcast OVC012 73.9 68 82% 30.03 1017.2
22 10:52 NE 3 10.00 Overcast OVC008 72 66.9 84% 30.05 1017.6
22 09:52 NE 6 4.00 Fog/Mist OVC003 70 66.9 90% 30.06 1018.0
22 08:52 NE 3 3.00 Fog/Mist OVC002 69.1 66.9 93% 30.06 1018.0
22 07:52 Calm 7.00 Overcast OVC002 68 66.9 68 64.9 96% 30.07 1018.3
22 06:52 Calm 0.75 Fog/Mist OVC002 66.9 66 97% 30.07 1018.5
22 05:52 E 3 0.75 Fog/Mist VV002 66.9 64.9 93% 30.06 1017.9
22 04:52 E 3 0.50 Fog VV002 66 64.9 96% 30.06 1018.2
22 03:52 Calm 1.50 Fog/Mist OVC003 66 64 93% 30.08 1018.7
22 02:52 Calm 3.00 Fog/Mist OVC003 66 64 93% 30.1 1019.6
22 01:52 Calm 10.00 Overcast OVC003 64.9 63 68 64.9 93% 30.11 1019.7 0.31
22 00:52 SE 3 9.00 Overcast OVC003 64.9 64 97% 30.09 1019.3
21 23:52 E 6 6.00 Fog/Mist OVC003 64.9 63 93% 30.11 1019.8
21 22:52 NE 6 10.00 Overcast OVC004 64.9 63 93% 30.12 1020.0 0.03 0.31
21 21:52 E 7 7.00 Rain FEW008 SCT036 BKN100 66 64 93% 30.13 1020.4 0.09
21 20:52 E 3 10.00 Light Rain FEW100 66 64 93% 30.15 1021.0 0.19
21 19:52 N 6 10.00 Overcast FEW009 SCT037 OVC050 68 62.1 78.1 68 81% 30.16 1021.5
21 18:52 N 8 10.00 Mostly Cloudy BKN041 69.1 62.1 78% 30.15 1021.0
21 17:52 NE 7 10.00 Fair CLR 71.1 63 76% 30.13 1020.4
21 16:52 NE 9 10.00 A Few Clouds FEW010 73.9 63 69% 30.13 1020.6
21 15:52 NE 10 10.00 Fair CLR 73.9 63 69% 30.14 1020.8
21 14:52 NE 12 10.00 Fair CLR 75.9 64.9 69% 78 30.15 1021.1
21 13:52 NE 10 10.00 Mostly Cloudy BKN015 75.9 66 86 75 72% 77 30.17 1021.6
21 12:52 NE 14 10.00 Mostly Cloudy BKN011 77 68 74% 79 30.18 1022.1
21 11:52 NE 12 G 23 10.00 A Few Clouds FEW027 82 70 67% 86 30.17 1021.8
21 10:52 E 10 10.00 Fair CLR 82.9 69.1 63% 87 30.15 1021.1
21 09:52 N 8 10.00 Fair CLR 84.9 70 61% 89 30.16 1021.2
21 08:52 Vrbl 5 10.00 Fair CLR 81 70 69% 84 30.16 1021.3
21 07:52 W 3 10.00 A Few Clouds FEW060 75.9 68 75.9 68 77% 77 30.17 1021.8
21 06:52 SW 3 10.00 Fair CLR 73 66.9 81% 30.17 1021.6
21 05:52 Calm 10.00 Fair CLR 70 66.9 90% 30.17 1021.7
21 04:52 Calm 10.00 Fair CLR 70 66.9 90% 30.17 1021.8
21 03:52 Calm 10.00 Fair CLR 69.1 66 90% 30.17 1021.8
21 02:52 Calm 10.00 Fair CLR 70 66.9 90% 30.17 1021.8
21 01:52 W 5 10.00 Fair CLR 70 66.9 82.9 70 90% 30.19 1022.3
21 00:52 SW 5 10.00 Fair CLR 71.1 66 84% 30.19 1022.4
20 23:52 S 3 10.00 Fair CLR 73 66 79% 30.19 1022.5
20 22:52 Calm 10.00 A Few Clouds FEW055 75 64.9 71% 77 30.23 1023.9
20 21:52 N 16 G 31 10.00 Mostly Cloudy FEW028 BKN034 80.1 68 67% 83 30.25 1024.6
20 20:52 SW 7 10.00 Fair CLR 80.1 70 71% 83 30.19 1022.4
20 19:52 SW 8 10.00 Fair CLR 82.9 71.1 93 82.9 67% 88 30.17 1021.6
20 18:52 SW 9 10.00 Fair CLR 87.1 72 61% 94 30.16 1021.4
20 17:52 SW 12 10.00 Fair CLR 89.1 72 57% 96 30.16 1021.4
20 16:52 SW 12 10.00 Fair CLR 91 72 54% 99 30.17 1021.6
20 15:52 SW 8 G 22 10.00 Fair CLR 91.9 72 52% 100 30.18 1021.9
20 14:52 SW 14 10.00 Fair CLR 93 73 52% 102 30.2 1022.8
20 13:52 SW 10 G 20 10.00 Fair CLR 90 71.1 91 75.9 54% 96 30.22 1023.4
20 12:52 SW 10 10.00 Fair CLR 90 72 56% 97 30.24 1024.0
20 11:52 SW 9 10.00 Fair CLR 88 71.1 57% 94 30.25 1024.4
20 09:52 W 13 10.00 Fair CLR 84 68 59% 87 30.25 1024.4
20 08:52 SW 9 10.00 Fair CLR 80.1 66.9 64% 82 30.25 1024.4
20 07:52 SW 7 10.00 Fair CLR 75.9 64.9 75.9 69.1 69% 78 30.26 1024.8
20 06:52 SW 7 10.00 Fair CLR 72 64 76% 30.26 1024.8
20 05:52 SW 6 10.00 Fair CLR 70 63 79% 30.26 1024.7
20 04:52 SW 8 10.00 Fair CLR 69.1 62.1 78% 30.26 1024.7
20 03:52 SW 7 10.00 Fair CLR 70 61 73% 30.26 1024.9
20 02:52 SW 8 10.00 Fair CLR 70 61 73% 30.27 1025.0
20 01:52 SW 8 10.00 Fair CLR 70 61 77 70 73% 30.27 1025.0
20 00:52 SW 9 10.00 Fair CLR 70 61 73% 30.27 1025.3
Date Time (edt) Wind (mph) Vis. (mi.) Weather Sky Cond. Air Dwpt Max. Min. Relative Humidity Wind Chill (°F) Heat Index (°F) altimeter (in) sea level (mb) 1 hr 3 hr 6 hr
6 hour
Temperature (ºF) Pressure Precipitation (in)